COSMOS 2251 DEB

Satellite information

Favourite Embed

Satellite Type and Status

DEBRISIN ORBIT

Key statistics

Satellite COSMOS 2251 DEB at a glance.

Uptime

11709

Days in orbit

Revolutions

≈ 14.4

Per day

Orbit

LEO

Low Earth Orbit

Inclination

73.8

Latest

Satellite identification and parameters

Extended collection of information and parameters for COSMOS 2251 DEB.

Object identification

Identified? True

Debris? True

Object name: COSMOS 2251 DEB

International designator: 1993-036BRH

Object number (NORAD): 38006

Object ID (CCSDS): 38006

Country: COMMONWEALTH OF INDEPENDENT STATES (CIS)

Current information (Y/N): Y

RCS size: SMALL

Orbital parameters

Period: 99.77 minutes

Inclination: 73.8489 deg

SMA: 7125.692 km

Apoapsis: 799.874 km

Periapsis: 695.24 km

RAAN: 344.8577 deg

Eccentricy: 0.007342

Argument of periapsis: 331.1427 deg

Mean anomaly: 28.5675 deg

Mean motion: 14.43318488 rev/day

Mean motion (dot): 0.00003566 rev/day2

B* drag term: 0.0010321 1/REarth

Two-line elements (TLE)

Creation date: July 3, 2025, 3:40 a.m.

Reference frame: TEME

Reference center: EARTH

Epoch: July 2, 2025, 5:29 p.m. UTC

TLE line 0: 0 COSMOS 2251 DEB

TLE line 1: 1 38006U 93036BRH 25183.72868332 .00003566 00000-0 10321-2 0 9995

TLE line 2: 2 38006 73.8489 344.8577 0073420 331.1427 28.5675 14.43318488606068

Live tracking on map

Real-time ground track for satellite COSMOS 2251 DEB.

In-orbit conjunctions

A list of the most updated potential collisions computed for object COSMOS 2251 DEB.

Target Orbit TCA Probability of collision Miss distance Type
CZ-6A DEB SSO 2025-05-28 00:38:45 0.0001547835 196.0 (m) DEBRIS
CZ-6A DEB LEO 2025-04-02 17:56:34 0.0002025033 121.0 (m) DEBRIS
SL-16 DEB LEO 2024-08-29 22:19:26 0.0002513518 21.0 (m) DEBRIS

Associated space launch

Military communications satellite. Destroyed in a collision with Iridium 33.

COSMOS 2251 DEB was lifted into orbit during the mission ‘Kosmos-3M | Strela-2M 51’, on board a Kosmos-3M space rocket.

The launch took place on June 16, 1993, 4:17 a.m. from 132/1 (132L).

For more information about the launch, click the button.

Launch to space Kosmos-3M | Strela-2M 51
Kosmos-3M | Strela-2M 51

Agency: N/A

Status: Launch Successful

Launch date: June 16, 1993, 4:17 a.m. UTC

Rocket: Kosmos-3M

Launch pad: 132/1 (132L)

Location: Plesetsk Cosmodrome, Russian Federation

...

Latest news about this satellite

There are no fresh news available about this satellite. Check back as we update our databases every day.


Newsletter sign-up

Weekly statistics, charts and insights to help you stay on top of the space industry.